Tracking 28052 objects as of 22-Sep-2023
HD Live streaming from Space Station
objects crossing your sky now

STARLINK-3672

Track STARLINK-3672 now!
10-day predictions
STARLINK-3672 is classified as:


NORAD ID: 51974
Int'l Code: 2022-025U
Perigee: 553.2 km
Apogee: 555.5 km
Inclination: 53.1 °
Period: 95.6 minutes
Semi major axis: 6925 km
RCS: Unknown
Launch date: March 9, 2022
Source: United States (US)
Launch site: AIR FORCE EASTERN TEST RANGE (AFETR)
Your satellite tracking list
Your tracking list is empty




NASA's NSSDC Master Catalog

Two Line Element Set (TLE):
1 51974U 22025U   23265.01912913  .00000401  00000-0  45836-4 0  9996
2 51974  53.0542 109.6578 0001683 101.4572 258.6606 15.06397940 86406
Source of the keplerian elements: AFSPC